This demonstration page uses our WeatherBlox Daily Observations layout. Learn more.

Left ArrowRight Arrow

38.88101, -77.10428

Hourly Observations for July 4, 2022

Temp ( °F °C ) Dew Point ( °F °C ) Humidity (%) Winds ( mph kmh ) Pressure ( in mb ) Visibility ( mi km ) Precip ( " mm )
12:52 am 00:52 Mostly Clear 76 24.4 64 17.8 67 67 WSW 3 6 30.11 1020 10 16 0.00 0.00
1:52 am 01:52 Mostly Clear 73 22.8 62 16.7 69 69 NNW 7 11 30.11 1020 10 16 0.00 0.00
2:52 am 02:52 Clear 72 22.2 62 16.7 71 71 N 5 7 30.11 1020 10 16 0.00 0.00
3:52 am 03:52 Clear 71 21.7 59 15 66 66 NNW 8 13 30.12 1020 10 16 0.00 0.00
4:52 am 04:52 Clear 71 21.7 58 14.4 63 63 NNW 5 7 30.13 1020 10 16 0.00 0.00
5:52 am 05:52 Sunny 71 21.7 55 12.8 57 57 NNE 9 15 30.15 1021 10 16 0.00 0.00
6:52 am 06:52 Sunny 72 22.2 56 13.3 57 57 ENE 3 6 30.16 1021 10 16 0.00 0.00
7:52 am 07:52 Sunny 74 23.3 56 13.3 54 54 NE 7 11 30.19 1022 10 16 0.00 0.00
8:52 am 08:52 Mostly Sunny 77 25 56 13.3 48 48 ENE 6 9 30.20 1023 10 16 0.00 0.00
9:52 am 09:52 Partly Cloudy 81 27.2 53 11.7 38 38 ENE 7 11 30.20 1023 10 16 0.00 0.00
10:52 am 10:52 Partly Cloudy 82 27.8 53 11.7 37 37 NE 8 13 30.21 1023 10 16 0.00 0.00
11:52 am 11:52 Partly Cloudy 85 29.4 52 11.1 32 32 E 3 6 30.20 1023 10 16 0.00 0.00
12:52 pm 12:52 Partly Cloudy 86 30 49 9.4 28 28 Calm 30.19 1022 10 16 0.00 0.00
1:52 pm 13:52 Mostly Cloudy 86 30 51 10.6 30 30 VRB 3 6 30.17 1022 10 16 0.00 0.00
2:52 pm 14:52 Mostly Cloudy 88 31.1 51 10.6 28 28 NE 5 7 30.15 1021 10 16 0.00 0.00
3:52 pm 15:52 Partly Cloudy 87 30.6 51 10.6 29 29 Calm 30.14 1021 10 16 0.00 0.00
4:52 pm 16:52 Partly Cloudy 87 30.6 52 11.1 30 30 SSE 3 6 30.13 1020 10 16 0.00 0.00
5:52 pm 17:52 Partly Cloudy 87 30.6 55 12.8 34 34 S 9 15 30.12 1020 10 16 0.00 0.00
6:52 pm 18:52 Mostly Cloudy 85 29.4 55 12.8 36 36 S 8 13 30.12 1020 10 16 0.00 0.00
7:52 pm 19:52 Mostly Cloudy 83 28.3 56 13.3 40 40 S 7 11 30.12 1020 10 16 0.00 0.00
8:52 pm 20:52 Mostly Cloudy 80 26.7 56 13.3 44 44 SE 10 17 30.13 1020 10 16 0.00 0.00
9:52 pm 21:52 Mostly Cloudy 78 25.6 54 12.2 43 43 S 8 13 30.15 1021 10 16 0.00 0.00
10:52 pm 22:52 Mostly Cloudy 77 25 57 13.9 50 50 SSE 5 7 30.15 1021 10 16 0.00 0.00
11:52 pm 23:52 Mostly Cloudy 75 23.9 60 15.6 60 60 S 8 13 30.14 1021 10 16 0.00 0.00

Powered by AerisWeather